| time (UTC) | temp F | wind direction | speed knots | gust knots | rain 1hr in | rain 24hr in | rain mn in | humidity % | barometer mb |
| 20260906060923 | 69 | 20 | 0.9 | 1.7 | 0.00 | 0.00 | 0.00 | 96 | 1013.6 |
| 20260906060421 | 69 | 357 | 1.7 | 1.7 | 0.00 | 0.00 | 0.00 | 96 | 1013.8 |
| 20260906055917 | 69 | 357 | 0.9 | 1.7 | 0.00 | 0.00 | 0.00 | 95 | 1013.8 |
| 20260906055413 | 69 | 318 | 0.0 | 0.9 | 0.00 | 0.00 | 0.00 | 95 | 1013.8 |
| 20260906054908 | 69 | 343 | 0.0 | 0.0 | 0.00 | 0.00 | 0.00 | 95 | 1014.0 |
| 20260906054402 | 69 | 349 | 0.9 | 1.7 | 0.00 | 0.00 | 0.00 | 95 | 1013.8 |
| 20260906053858 | 70 | 336 | 1.7 | 1.7 | 0.00 | 0.00 | 0.00 | 95 | 1014.0 |
| 20260906053354 | 70 | 333 | 0.9 | 1.7 | 0.00 | 0.00 | 0.00 | 95 | 1014.1 |
| 20260906052850 | 70 | 15 | 0.9 | 1.7 | 0.00 | 0.00 | 0.00 | 95 | 1014.1 |
| 20260906052346 | 70 | 339 | 1.7 | 1.7 | 0.00 | 0.00 | 0.00 | 95 | 1014.4 |
| 20260906051843 | 70 | 23 | 0.0 | 1.7 | 0.00 | 0.00 | 0.00 | 95 | 1014.0 |
| 20260906051342 | 70 | 336 | 1.7 | 1.7 | 0.00 | 0.00 | 0.00 | 95 | 1014.0 |
| 20260906050838 | 70 | 12 | 0.9 | 1.7 | 0.00 | 0.00 | 0.00 | 94 | 1014.1 |
| 20260906050332 | 70 | 340 | 1.7 | 1.7 | 0.00 | 0.00 | 0.00 | 94 | 1014.4 |
| 20260906045831 | 70 | 17 | 0.9 | 1.7 | 0.00 | 0.00 | 0.00 | 94 | 1014.6 |
| 20260906045326 | 70 | 332 | 0.9 | 0.9 | 0.00 | 0.00 | 0.00 | 94 | 1014.5 |
| 20260906044823 | 70 | 332 | 0.9 | 1.7 | 0.00 | 0.00 | 0.00 | 94 | 1014.1 |
| 20260906044317 | 70 | 333 | 1.7 | 1.7 | 0.00 | 0.00 | 0.00 | 93 | 1014.1 |
| 20260906043813 | 71 | 36 | 0.9 | 1.7 | 0.00 | 0.00 | 0.00 | 93 | 1014.1 |
| 20260906043309 | 71 | 18 | 0.9 | 1.7 | 0.00 | 0.00 | 0.00 | 93 | 1014.2 |
| 20260906042808 | 71 | 25 | 0.9 | 1.7 | 0.00 | 0.00 | 0.00 | 92 | 1014.0 |
| 20260906042307 | 71 | 347 | 0.9 | 1.7 | 0.00 | 0.00 | 0.00 | 92 | 1014.1 |
| 20260906041803 | 71 | 344 | 1.7 | 1.7 | 0.00 | 0.00 | 0.00 | 92 | 1014.2 |
| 20260906041258 | 71 | 350 | 1.7 | 1.7 | 0.00 | 0.00 | 0.00 | 92 | 1014.4 |
| 20260906040754 | 71 | 21 | 1.7 | 1.7 | 0.00 | 0.00 | 0.00 | 92 | 1014.6 |
| 20260906040249 | 71 | 9 | 1.7 | 1.7 | 0.00 | 0.00 | 0.00 | 92 | 1014.5 |
| 20260906035744 | 71 | 355 | 1.7 | 1.7 | 0.00 | 0.02 | 0.02 | 92 | 1014.5 |
| 20260906035240 | 71 | 346 | 0.0 | 1.7 | 0.00 | 0.02 | 0.02 | 92 | 1014.4 |
| 20260906034740 | 71 | 30 | 0.9 | 2.6 | 0.00 | 0.02 | 0.02 | 92 | 1014.5 |
| 20260906034234 | 71 | 332 | 1.7 | 2.6 | 0.00 | 0.02 | 0.02 | 92 | 1014.6 |
| 20260906033730 | 71 | 347 | 1.7 | 1.7 | 0.00 | 0.02 | 0.02 | 91 | 1014.5 |
| 20260906033230 | 71 | 18 | 0.9 | 1.7 | 0.00 | 0.02 | 0.02 | 91 | 1014.6 |
| 20260906032727 | 72 | 32 | 0.9 | 1.7 | 0.00 | 0.02 | 0.02 | 91 | 1014.7 |
| 20260906032226 | 72 | 228 | 0.0 | 0.9 | 0.00 | 0.02 | 0.02 | 90 | 1014.5 |
| 20260906031721 | 72 | 3 | 0.0 | 0.9 | 0.00 | 0.02 | 0.02 | 88 | 1014.4 |
| 20260906031217 | 72 | 332 | 0.0 | 0.9 | 0.00 | 0.02 | 0.02 | 88 | 1014.5 |
| 20260906030717 | 72 | 354 | 1.7 | 1.7 | 0.00 | 0.02 | 0.02 | 89 | 1014.6 |
| 20260906030212 | 72 | 0 | 1.7 | 1.7 | 0.00 | 0.02 | 0.02 | 90 | 1014.6 |
| 20260906025711 | 72 | 355 | 1.7 | 1.7 | 0.00 | 0.02 | 0.02 | 90 | 1014.6 |
| 20260906025206 | 72 | 18 | 0.9 | 1.7 | 0.00 | 0.02 | 0.02 | 90 | 1014.4 |
| 20260906024700 | 72 | 358 | 1.7 | 1.7 | 0.00 | 0.02 | 0.02 | 90 | 1014.2 |
| 20260906024159 | 72 | 0 | 1.7 | 1.7 | 0.00 | 0.02 | 0.02 | 89 | 1014.4 |
| 20260906023655 | 72 | 0 | 1.7 | 1.7 | 0.00 | 0.02 | 0.02 | 89 | 1014.2 |
| 20260906023155 | 72 | 6 | 1.7 | 1.7 | 0.00 | 0.02 | 0.02 | 89 | 1014.2 |
| 20260906022650 | 72 | 340 | 1.7 | 1.7 | 0.00 | 0.02 | 0.02 | 88 | 1014.2 |
| 20260906022146 | 72 | 353 | 1.7 | 1.7 | 0.00 | 0.02 | 0.02 | 88 | 1014.4 |
| 20260906021642 | 73 | 15 | 1.7 | 1.7 | 0.00 | 0.02 | 0.02 | 88 | 1014.4 |
| 20260906021140 | 73 | 1 | 1.7 | 1.7 | 0.00 | 0.02 | 0.02 | 87 | 1014.6 |
| 20260906020635 | 73 | 345 | 0.0 | 0.9 | 0.00 | 0.02 | 0.02 | 88 | 1014.6 |
| 20260906020130 | 73 | 5 | 0.0 | 0.0 | 0.00 | 0.02 | 0.02 | 87 | 1014.0 |
| 20260906015629 | 74 | 36 | 0.0 | 0.9 | 0.00 | 0.02 | 0.02 | 85 | 1013.9 |
| 20260906015129 | 74 | 7 | 0.0 | 0.9 | 0.00 | 0.02 | 0.02 | 83 | 1014.1 |
| 20260906014628 | 74 | 44 | 0.0 | 0.0 | 0.00 | 0.02 | 0.02 | 85 | 1013.9 |
| 20260906014125 | 74 | 4 | 0.0 | 1.7 | 0.00 | 0.02 | 0.02 | 83 | 1014.0 |
| 20260906013620 | 74 | 18 | 1.7 | 1.7 | 0.00 | 0.02 | 0.02 | 83 | 1013.9 |
| 20260906013116 | 74 | 24 | 0.9 | 1.7 | 0.00 | 0.02 | 0.02 | 85 | 1014.0 |
| 20260906012610 | 74 | 16 | 0.0 | 1.7 | 0.00 | 0.02 | 0.02 | 83 | 1013.9 |
| 20260906012105 | 74 | 0 | 0.9 | 1.7 | 0.00 | 0.02 | 0.02 | 84 | 1014.0 |
| 20260906011601 | 74 | 16 | 0.9 | 1.7 | 0.00 | 0.02 | 0.02 | 83 | 1013.7 |
| 20260906011100 | 74 | 358 | 1.7 | 1.7 | 0.00 | 0.02 | 0.02 | 84 | 1013.9 |
| 20260906010556 | 75 | 342 | 1.7 | 1.7 | 0.00 | 0.02 | 0.02 | 83 | 1013.8 |
| 20260906010052 | 75 | 10 | 0.9 | 1.7 | 0.00 | 0.02 | 0.02 | 82 | 1013.7 |
| 20260906005551 | 75 | 359 | 0.9 | 1.7 | 0.00 | 0.02 | 0.02 | 84 | 1013.6 |
| 20260906005050 | 76 | 337 | 1.7 | 1.7 | 0.00 | 0.02 | 0.02 | 82 | 1013.7 |
| 20260906004550 | 76 | 25 | 0.9 | 0.9 | 0.00 | 0.02 | 0.02 | 80 | 1013.5 |
| 20260906004045 | 77 | 64 | 0.9 | 1.7 | 0.00 | 0.02 | 0.02 | 81 | 1013.5 |
| 20260906003540 | 78 | 5 | 0.9 | 3.5 | 0.00 | 0.02 | 0.02 | 79 | 1013.3 |
| 20260906003036 | 78 | 6 | 1.7 | 2.6 | 0.00 | 0.02 | 0.02 | 73 | 1013.1 |
| 20260906002531 | 78 | 337 | 1.7 | 2.6 | 0.00 | 0.02 | 0.02 | 75 | 1013.1 |
| 20260906002025 | 78 | 343 | 1.7 | 3.5 | 0.00 | 0.02 | 0.02 | 79 | 1013.0 |
| 20260906001521 | 78 | 338 | 1.7 | 2.6 | 0.00 | 0.02 | 0.02 | 77 | 1012.8 |
| 20260906001021 | 78 | 353 | 1.7 | 2.6 | 0.00 | 0.02 | 0.02 | 76 | 1013.0 |
| 20260906000517 | 77 | 332 | 2.6 | 2.6 | 0.00 | 0.02 | 0.02 | 76 | 1012.9 |
| 20260906000012 | 76 | 350 | 1.7 | 3.5 | 0.00 | 0.02 | 0.02 | 82 | 1012.6 |
| 20260905235511 | 76 | 332 | 2.6 | 2.6 | 0.00 | 0.02 | 0.02 | 84 | 1012.6 |
| 20260905235007 | 76 | 332 | 2.6 | 2.6 | 0.00 | 0.02 | 0.02 | 83 | 1012.7 |
| 20260905234503 | 76 | 348 | 1.7 | 2.6 | 0.00 | 0.02 | 0.02 | 88 | 1012.8 |
| 20260905234002 | 76 | 316 | 1.7 | 2.6 | 0.00 | 0.02 | 0.02 | 87 | 1012.8 |
| 20260905233457 | 76 | 349 | 1.7 | 2.6 | 0.00 | 0.02 | 0.02 | 88 | 1012.7 |
| 20260905232956 | 77 | 323 | 1.7 | 1.7 | 0.00 | 0.02 | 0.02 | 88 | 1012.7 |
| 20260905232452 | 77 | 347 | 0.9 | 1.7 | 0.00 | 0.02 | 0.02 | 87 | 1012.7 |
| 20260905231948 | 77 | 349 | 1.7 | 1.7 | 0.00 | 0.02 | 0.02 | 86 | 1012.6 |
| 20260905231444 | 78 | 344 | 1.7 | 1.7 | 0.00 | 0.02 | 0.02 | 85 | 1012.6 |
| 20260905230940 | 78 | 354 | 1.7 | 1.7 | 0.00 | 0.02 | 0.02 | 84 | 1012.7 |
| 20260905230438 | 78 | 343 | 1.7 | 2.6 | 0.00 | 0.02 | 0.02 | 83 | 1012.6 |
| 20260905225937 | 78 | 0 | 1.7 | 1.7 | 0.00 | 0.02 | 0.02 | 82 | 1012.6 |
| 20260905225432 | 79 | 324 | 0.0 | 1.7 | 0.00 | 0.02 | 0.02 | 82 | 1012.8 |
| 20260905224927 | 79 | 345 | 1.7 | 1.7 | 0.00 | 0.02 | 0.02 | 81 | 1012.8 |
| 20260905224423 | 80 | 338 | 1.7 | 2.6 | 0.00 | 0.02 | 0.02 | 79 | 1012.8 |
| 20260905223922 | 80 | 342 | 1.7 | 1.7 | 0.00 | 0.02 | 0.02 | 77 | 1012.7 |
| 20260905223420 | 81 | 345 | 0.9 | 1.7 | 0.00 | 0.02 | 0.02 | 76 | 1012.7 |
| 20260905222920 | 81 | 357 | 0.9 | 0.9 | 0.00 | 0.02 | 0.02 | 75 | 1012.9 |
| 20260905222419 | 81 | 0 | 0.9 | 1.7 | 0.00 | 0.02 | 0.02 | 75 | 1012.9 |
| 20260905221916 | 81 | 4 | 0.0 | 0.9 | 0.00 | 0.02 | 0.02 | 72 | 1013.0 |
| 20260905221412 | 81 | 2 | 1.7 | 2.6 | 0.00 | 0.02 | 0.02 | 73 | 1013.0 |
| 20260905220908 | 81 | 347 | 0.9 | 1.7 | 0.00 | 0.02 | 0.02 | 72 | 1012.9 |
| 20260905220404 | 81 | 357 | 1.7 | 1.7 | 0.00 | 0.02 | 0.02 | 72 | 1013.0 |
| 20260905215903 | 81 | 316 | 0.0 | 0.9 | 0.00 | 0.02 | 0.02 | 73 | 1013.1 |
| 20260905215358 | 82 | 17 | 0.0 | 0.9 | 0.00 | 0.02 | 0.02 | 73 | 1013.0 |
| 20260905214855 | 82 | 342 | 1.7 | 1.7 | 0.00 | 0.02 | 0.02 | 72 | 1013.0 |
| 20260905214350 | 82 | 25 | 0.0 | 1.7 | 0.00 | 0.02 | 0.02 | 72 | 1013.0 |
| 20260905213844 | 82 | 2 | 0.0 | 0.9 | 0.00 | 0.02 | 0.02 | 72 | 1013.2 |
| 20260905213342 | 82 | 62 | 1.7 | 1.7 | 0.00 | 0.02 | 0.02 | 70 | 1013.0 |
| 20260905212841 | 82 | 22 | 0.0 | 0.0 | 0.00 | 0.02 | 0.02 | 71 | 1012.9 |
| 20260905212336 | 83 | 351 | 0.0 | 0.9 | 0.00 | 0.02 | 0.02 | 72 | 1013.0 |
| 20260905211835 | 83 | 23 | 0.0 | 1.7 | 0.00 | 0.02 | 0.02 | 67 | 1012.9 |
| 20260905211331 | 83 | 44 | 0.0 | 0.0 | 0.00 | 0.02 | 0.02 | 69 | 1013.0 |
| 20260905210828 | 83 | 356 | 0.0 | 0.9 | 0.00 | 0.02 | 0.02 | 70 | 1013.2 |
| 20260905210327 | 83 | 49 | 0.0 | 2.6 | 0.00 | 0.02 | 0.02 | 67 | 1013.3 |
| 20260905205826 | 83 | 26 | 0.0 | 1.7 | 0.00 | 0.02 | 0.02 | 67 | 1013.3 |
| 20260905205321 | 82 | 335 | 0.9 | 0.9 | 0.00 | 0.02 | 0.02 | 67 | 1013.3 |
| 20260905204820 | 82 | 45 | 0.0 | 0.9 | 0.00 | 0.02 | 0.02 | 68 | 1013.5 |
| 20260905204317 | 82 | 85 | 1.7 | 1.7 | 0.00 | 0.02 | 0.02 | 71 | 1013.4 |
| 20260905203815 | 82 | 329 | 0.0 | 0.9 | 0.00 | 0.02 | 0.02 | 75 | 1013.4 |
| 20260905203312 | 82 | 335 | 0.0 | 0.0 | 0.00 | 0.02 | 0.02 | 73 | 1013.4 |
| 20260905202807 | 81 | 32 | 0.0 | 2.6 | 0.00 | 0.02 | 0.02 | 71 | 1013.4 |
| 20260905202301 | 81 | 347 | 0.9 | 2.6 | 0.00 | 0.02 | 0.02 | 74 | 1013.4 |
| 20260905201757 | 80 | 32 | 0.9 | 1.7 | 0.00 | 0.02 | 0.02 | 73 | 1013.5 |
| 20260905201252 | 80 | 357 | 1.7 | 1.7 | 0.00 | 0.02 | 0.02 | 73 | 1013.4 |
| 20260905200747 | 80 | 343 | 1.7 | 2.6 | 0.00 | 0.02 | 0.02 | 72 | 1013.5 |
| 20260905200243 | 80 | 308 | 0.0 | 1.7 | 0.00 | 0.02 | 0.02 | 75 | 1013.5 |
| 20260905195741 | 79 | 335 | 0.0 | 0.9 | 0.00 | 0.02 | 0.02 | 72 | 1013.4 |
| 20260905195236 | 79 | 315 | 0.0 | 1.7 | 0.00 | 0.02 | 0.02 | 72 | 1013.5 |
| 20260905194732 | 79 | 343 | 1.7 | 1.7 | 0.00 | 0.02 | 0.02 | 73 | 1013.4 |
| 20260905194231 | 79 | 14 | 1.7 | 2.6 | 0.00 | 0.02 | 0.02 | 73 | 1013.5 |
| 20260905193731 | 79 | 339 | 1.7 | 2.6 | 0.00 | 0.02 | 0.02 | 74 | 1013.7 |
| 20260905193225 | 78 | 347 | 2.6 | 2.6 | 0.00 | 0.02 | 0.02 | 74 | 1013.7 |
| 20260905192721 | 78 | 351 | 1.7 | 1.7 | 0.00 | 0.02 | 0.02 | 76 | 1013.8 |
| 20260905192218 | 78 | 50 | 0.0 | 1.7 | 0.00 | 0.02 | 0.02 | 73 | 1013.7 |
| 20260905191717 | 77 | 345 | 1.7 | 1.7 | 0.00 | 0.02 | 0.02 | 77 | 1013.5 |
| 20260905191215 | 77 | 344 | 1.7 | 1.7 | 0.00 | 0.02 | 0.02 | 83 | 1013.8 |
| 20260905190714 | 77 | 51 | 0.0 | 1.7 | 0.00 | 0.02 | 0.02 | 83 | 1013.9 |
| 20260905190213 | 77 | 25 | 1.7 | 1.7 | 0.00 | 0.02 | 0.02 | 85 | 1013.8 |
| 20260905185712 | 76 | 336 | 0.0 | 1.7 | 0.00 | 0.02 | 0.02 | 84 | 1013.6 |
| 20260905185207 | 76 | 4 | 0.9 | 1.7 | 0.00 | 0.02 | 0.02 | 85 | 1013.5 |
| 20260905184707 | 76 | 39 | 2.6 | 3.5 | 0.00 | 0.02 | 0.02 | 83 | 1013.3 |
| 20260905184205 | 76 | 347 | 3.5 | 4.3 | 0.00 | 0.02 | 0.02 | 80 | 1013.4 |
| 20260905183659 | 76 | 31 | 0.0 | 0.9 | 0.00 | 0.02 | 0.02 | 82 | 1013.4 |
| 20260905183155 | 76 | 269 | 0.0 | 0.9 | 0.00 | 0.02 | 0.02 | 81 | 1013.3 |
| 20260905182654 | 77 | 334 | 1.7 | 1.7 | 0.00 | 0.02 | 0.02 | 79 | 1013.3 |
| 20260905182154 | 77 | 342 | 2.6 | 2.6 | 0.00 | 0.02 | 0.02 | 79 | 1013.4 |
| 20260905181650 | 78 | 43 | 0.9 | 1.7 | 0.02 | 0.02 | 0.02 | 77 | 1013.3 |
| 20260905181148 | 79 | 344 | 0.9 | 1.7 | 0.05 | 0.02 | 0.02 | 71 | 1013.7 |
| 20260905180643 | 81 | 7 | 1.7 | 1.7 | 0.05 | 0.01 | 0.01 | 65 | 1014.0 |
| 20260905180139 | 81 | 27 | 1.7 | 3.5 | 0.05 | 0.01 | 0.01 | 62 | 1014.6 |
| 20260905175637 | 83 | 344 | 3.5 | 4.3 | 0.02 | 0.00 | 0.00 | 60 | 1014.7 |
| 20260905175133 | 83 | 335 | 2.6 | 6.1 | 0.00 | 0.00 | 0.00 | 57 | 1015.1 |
| 20260905174629 | 84 | 342 | 1.7 | 5.2 | 0.00 | 0.00 | 0.00 | 57 | 1014.9 |
| 20260905174124 | 85 | 336 | 4.3 | 4.3 | 0.00 | 0.00 | 0.00 | 58 | 1015.0 |
| 20260905173620 | 85 | 323 | 5.2 | 5.2 | 0.00 | 0.00 | 0.00 | 58 | 1015.0 |
| 20260905173116 | 86 | 324 | 3.5 | 4.3 | 0.00 | 0.00 | 0.00 | 68 | 1014.9 |
| 20260905172614 | 86 | 265 | 1.7 | 5.2 | 0.00 | 0.00 | 0.00 | 57 | 1015.1 |
| 20260905172109 | 88 | 180 | 0.9 | 1.7 | 0.00 | 0.00 | 0.00 | 60 | 1015.3 |
| 20260905171606 | 89 | 25 | 1.7 | 2.6 | 0.00 | 0.00 | 0.00 | 59 | 1015.2 |
| 20260905171101 | 89 | 15 | 1.7 | 2.6 | 0.00 | 0.00 | 0.00 | 61 | 1015.2 |
| 20260905170558 | 89 | 322 | 2.6 | 2.6 | 0.00 | 0.00 | 0.00 | 57 | 1015.2 |
| 20260905170053 | 90 | 6 | 1.7 | 2.6 | 0.00 | 0.00 | 0.00 | 56 | 1015.2 |
| 20260905165548 | 90 | 20 | 1.7 | 3.5 | 0.00 | 0.00 | 0.00 | 55 | 1015.0 |
| 20260905165043 | 90 | 323 | 3.5 | 4.3 | 0.00 | 0.00 | 0.00 | 55 | 1015.3 |
| 20260905164543 | 90 | 330 | 2.6 | 6.1 | 0.00 | 0.00 | 0.00 | 54 | 1015.4 |
| 20260905164038 | 90 | 36 | 0.9 | 4.3 | 0.00 | 0.00 | 0.00 | 56 | 1015.4 |
| 20260905163534 | 90 | 335 | 7.0 | 7.8 | 0.00 | 0.00 | 0.00 | 55 | 1015.5 |
| 20260905163030 | 91 | 359 | 3.5 | 4.3 | 0.00 | 0.00 | 0.00 | 56 | 1015.1 |
| 20260905162526 | 91 | 313 | 0.9 | 2.6 | 0.00 | 0.00 | 0.00 | 58 | 1015.0 |
| 20260905162020 | 91 | 14 | 1.7 | 3.5 | 0.00 | 0.00 | 0.00 | 58 | 1015.1 |
| 20260905161520 | 92 | 82 | 0.0 | 3.5 | 0.00 | 0.00 | 0.00 | 58 | 1015.1 |
| 20260905161018 | 91 | 47 | 0.0 | 1.7 | 0.00 | 0.00 | 0.00 | 58 | 1015.3 |
| 20260905160517 | 90 | 15 | 1.7 | 3.5 | 0.00 | 0.00 | 0.00 | 59 | 1015.3 |
| 20260905160017 | 91 | 333 | 3.5 | 4.3 | 0.00 | 0.00 | 0.00 | 58 | 1015.4 |
| 20260905155517 | 90 | 33 | 1.7 | 1.7 | 0.00 | 0.00 | 0.00 | 63 | 1015.8 |
| 20260905155015 | 90 | 0 | 1.7 | 2.6 | 0.00 | 0.00 | 0.00 | 61 | 1015.5 |
| 20260905154511 | 89 | 304 | 1.7 | 1.7 | 0.00 | 0.00 | 0.00 | 62 | 1015.6 |
| 20260905154007 | 89 | 282 | 0.0 | 2.6 | 0.00 | 0.00 | 0.00 | 65 | 1015.5 |
| 20260905153503 | 88 | 31 | 0.9 | 2.6 | 0.00 | 0.00 | 0.00 | 63 | 1015.3 |
| 20260905153002 | 87 | 56 | 1.7 | 1.7 | 0.00 | 0.00 | 0.00 | 68 | 1015.5 |
| 20260905152502 | 87 | 344 | 0.9 | 1.7 | 0.00 | 0.00 | 0.00 | 70 | 1015.4 |
| 20260905151957 | 86 | 224 | 0.0 | 1.7 | 0.00 | 0.00 | 0.00 | 72 | 1015.2 |
| 20260905151453 | 86 | 43 | 0.0 | 0.9 | 0.00 | 0.00 | 0.00 | 73 | 1015.2 |
| 20260905150953 | 85 | 47 | 0.9 | 1.7 | 0.00 | 0.00 | 0.00 | 75 | 1015.2 |
| 20260905150448 | 84 | 44 | 0.0 | 1.7 | 0.00 | 0.00 | 0.00 | 77 | 1015.0 |
| 20260905145944 | 84 | 31 | 0.0 | 1.7 | 0.00 | 0.00 | 0.00 | 80 | 1015.3 |
| 20260905145439 | 84 | 316 | 0.0 | 0.9 | 0.00 | 0.00 | 0.00 | 78 | 1015.2 |
| 20260905144938 | 83 | 325 | 0.9 | 0.9 | 0.00 | 0.00 | 0.00 | 79 | 1015.4 |
| 20260905144434 | 83 | 335 | 0.0 | 0.0 | 0.00 | 0.00 | 0.00 | 79 | 1015.3 |
| 20260905143932 | 83 | 40 | 1.7 | 1.7 | 0.00 | 0.00 | 0.00 | 78 | 1015.3 |
| 20260905143426 | 82 | 60 | 0.0 | 1.7 | 0.00 | 0.00 | 0.00 | 80 | 1015.4 |
| 20260905142926 | 81 | 41 | 0.9 | 1.7 | 0.00 | 0.00 | 0.00 | 81 | 1015.3 |
| 20260905142425 | 81 | 3 | 0.9 | 1.7 | 0.00 | 0.00 | 0.00 | 82 | 1015.4 |
| 20260905141921 | 80 | 335 | 0.0 | 0.9 | 0.00 | 0.00 | 0.00 | 85 | 1015.5 |
| 20260905141416 | 80 | 351 | 1.7 | 1.7 | 0.00 | 0.00 | 0.00 | 85 | 1015.5 |
| 20260905140912 | 80 | 326 | 0.9 | 0.9 | 0.00 | 0.00 | 0.00 | 85 | 1015.5 |
| 20260905140407 | 79 | 0 | 0.9 | 1.7 | 0.00 | 0.00 | 0.00 | 86 | 1015.4 |
| 20260905135906 | 78 | 44 | 0.0 | 1.7 | 0.00 | 0.00 | 0.00 | 87 | 1015.3 |
| 20260905135401 | 78 | 48 | 0.0 | 0.9 | 0.00 | 0.00 | 0.00 | 88 | 1015.3 |
| 20260905134857 | 78 | 52 | 0.0 | 0.9 | 0.00 | 0.00 | 0.00 | 89 | 1015.3 |
| 20260905134355 | 77 | 124 | 0.0 | 0.9 | 0.00 | 0.00 | 0.00 | 90 | 1015.4 |
| 20260905133850 | 76 | 26 | 0.0 | 0.9 | 0.00 | 0.00 | 0.00 | 92 | 1015.3 |
| 20260905133345 | 76 | 19 | 0.9 | 1.7 | 0.00 | 0.00 | 0.00 | 94 | 1015.6 |
| 20260905132844 | 75 | 358 | 1.7 | 1.7 | 0.00 | 0.00 | 0.00 | 95 | 1015.6 |
| 20260905132341 | 74 | 5 | 0.0 | 0.9 | 0.00 | 0.00 | 0.00 | 97 | 1015.7 |
| 20260905131840 | 74 | 12 | 0.0 | 1.7 | 0.00 | 0.00 | 0.00 | 98 | 1015.6 |
| 20260905131336 | 73 | 333 | 0.9 | 1.7 | 0.00 | 0.00 | 0.00 | 98 | 1015.6 |
| 20260905130831 | 73 | 26 | 0.9 | 0.9 | 0.00 | 0.00 | 0.00 | 99 | 1015.7 |
| 20260905130329 | 73 | 7 | 0.0 | 0.9 | 0.00 | 0.00 | 0.00 | 99 | 1016.0 |
| 20260905125825 | 73 | 3 | 0.0 | 0.9 | 0.00 | 0.00 | 0.00 | 99 | 1015.8 |
| 20260905125320 | 72 | 11 | 0.0 | 0.9 | 0.00 | 0.00 | 0.00 | 99 | 1015.7 |
| 20260905124816 | 72 | 319 | 0.0 | 0.9 | 0.00 | 0.00 | 0.00 | 99 | 1015.9 |
| 20260905124312 | 72 | 315 | 0.0 | 0.0 | 0.00 | 0.00 | 0.00 | 99 | 1015.9 |
| 20260905123807 | 71 | 40 | 0.0 | 0.0 | 0.00 | 0.00 | 0.00 | 99 | 1015.8 |
| 20260905123304 | 71 | 3 | 0.0 | 0.0 | 0.00 | 0.00 | 0.00 | 99 | 1015.9 |
| 20260905122803 | 71 | 3 | 0.0 | 0.9 | 0.00 | 0.00 | 0.00 | 99 | 1015.8 |
| 20260905122306 | 71 | 8 | 0.9 | 1.7 | 0.00 | 0.00 | 0.00 | 99 | 1015.8 |
| 20260905121758 | 71 | 357 | 1.7 | 1.7 | 0.00 | 0.00 | 0.00 | 99 | 1015.8 |
| 20260905121255 | 70 | 342 | 0.0 | 1.7 | 0.00 | 0.00 | 0.00 | 99 | 1015.8 |
| 20260905120753 | 70 | 4 | 0.9 | 0.9 | 0.00 | 0.00 | 0.00 | 98 | 1015.6 |
| 20260905120253 | 70 | 1 | 0.9 | 1.7 | 0.00 | 0.00 | 0.00 | 98 | 1015.5 |
| 20260905115749 | 70 | 318 | 0.0 | 1.7 | 0.00 | 0.00 | 0.00 | 98 | 1015.4 |
| 20260905115248 | 70 | 23 | 0.0 | 1.7 | 0.00 | 0.00 | 0.00 | 98 | 1015.4 |
| 20260905114748 | 70 | 11 | 0.0 | 1.7 | 0.00 | 0.00 | 0.00 | 98 | 1015.3 |
| 20260905114247 | 70 | 357 | 0.9 | 1.7 | 0.00 | 0.00 | 0.00 | 98 | 1015.3 |
| 20260905113746 | 70 | 308 | 0.9 | 1.7 | 0.00 | 0.00 | 0.00 | 98 | 1015.4 |
| 20260905113242 | 70 | 337 | 0.9 | 1.7 | 0.00 | 0.00 | 0.00 | 98 | 1015.1 |
| 20260905112738 | 70 | 315 | 0.0 | 0.9 | 0.00 | 0.00 | 0.00 | 98 | 1015.3 |
| 20260905112238 | 70 | 20 | 0.9 | 0.9 | 0.00 | 0.00 | 0.00 | 98 | 1015.3 |
| 20260905111732 | 70 | 305 | 0.0 | 0.9 | 0.00 | 0.00 | 0.00 | 98 | 1015.1 |
| 20260905111227 | 70 | 347 | 0.0 | 0.9 | 0.00 | 0.00 | 0.00 | 98 | 1015.1 |
| 20260905110726 | 71 | 10 | 1.7 | 1.7 | 0.00 | 0.00 | 0.00 | 98 | 1014.8 |
| 20260905110220 | 71 | 355 | 1.7 | 1.7 | 0.00 | 0.00 | 0.00 | 98 | 1015.0 |
| 20260905105716 | 70 | 10 | 1.7 | 1.7 | 0.00 | 0.00 | 0.00 | 98 | 1014.9 |
| 20260905105215 | 70 | 8 | 1.7 | 1.7 | 0.00 | 0.00 | 0.00 | 98 | 1014.9 |
| 20260905104710 | 70 | 0 | 1.7 | 1.7 | 0.00 | 0.00 | 0.00 | 98 | 1014.7 |
| 20260905104206 | 70 | 350 | 1.7 | 1.7 | 0.00 | 0.00 | 0.00 | 98 | 1015.0 |
| 20260905103701 | 70 | 20 | 1.7 | 1.7 | 0.00 | 0.00 | 0.00 | 98 | 1014.9 |
| 20260905103156 | 70 | 9 | 1.7 | 1.7 | 0.00 | 0.00 | 0.00 | 98 | 1014.9 |
| 20260905102652 | 70 | 312 | 1.7 | 1.7 | 0.00 | 0.00 | 0.00 | 98 | 1014.9 |
| 20260905102148 | 70 | 332 | 1.7 | 1.7 | 0.00 | 0.00 | 0.00 | 98 | 1014.8 |
| 20260905101647 | 70 | 357 | 0.9 | 0.9 | 0.00 | 0.00 | 0.00 | 98 | 1014.9 |
| 20260905101145 | 70 | 1 | 1.7 | 1.7 | 0.00 | 0.00 | 0.00 | 98 | 1014.8 |
| 20260905100642 | 70 | 1 | 1.7 | 1.7 | 0.00 | 0.00 | 0.00 | 98 | 1014.7 |
| 20260905100137 | 70 | 345 | 0.0 | 0.9 | 0.00 | 0.00 | 0.00 | 98 | 1014.6 |
| 20260905095630 | 70 | 0 | 0.9 | 1.7 | 0.00 | 0.00 | 0.00 | 98 | 1014.8 |
| 20260905095125 | 71 | 338 | 0.9 | 1.7 | 0.00 | 0.00 | 0.00 | 98 | 1014.6 |
| 20260905094621 | 71 | 331 | 0.0 | 0.9 | 0.00 | 0.00 | 0.00 | 98 | 1014.6 |
| 20260905094120 | 71 | 347 | 0.0 | 1.7 | 0.00 | 0.00 | 0.00 | 98 | 1014.5 |
| 20260905093621 | 71 | 358 | 1.7 | 1.7 | 0.00 | 0.00 | 0.00 | 98 | 1014.7 |
| 20260905093117 | 71 | 355 | 0.9 | 1.7 | 0.00 | 0.00 | 0.00 | 98 | 1014.4 |
| 20260905092616 | 71 | 354 | 0.9 | 1.7 | 0.00 | 0.00 | 0.00 | 97 | 1014.2 |
| 20260905092112 | 71 | 355 | 0.0 | 0.9 | 0.00 | 0.00 | 0.00 | 97 | 1014.5 |
| 20260905091611 | 71 | 357 | 0.9 | 0.9 | 0.00 | 0.00 | 0.00 | 97 | 1014.5 |
| 20260905091107 | 71 | 353 | 0.9 | 1.7 | 0.00 | 0.00 | 0.00 | 97 | 1014.4 |
| 20260905090606 | 71 | 13 | 1.7 | 1.7 | 0.00 | 0.00 | 0.00 | 97 | 1014.5 |
| 20260905085600 | 71 | 332 | 1.7 | 1.7 | 0.00 | 0.00 | 0.00 | 97 | 1014.7 |
| 20260905085056 | 71 | 35 | 0.9 | 1.7 | 0.00 | 0.00 | 0.00 | 97 | 1014.7 |
| 20260905084556 | 71 | 341 | 0.0 | 1.7 | 0.00 | 0.00 | 0.00 | 97 | 1014.6 |
| 20260905084051 | 71 | 1 | 0.9 | 1.7 | 0.00 | 0.00 | 0.00 | 97 | 1014.7 |
| 20260905083550 | 71 | 359 | 1.7 | 1.7 | 0.00 | 0.00 | 0.00 | 97 | 1014.9 |
| 20260905083047 | 71 | 6 | 0.9 | 1.7 | 0.00 | 0.00 | 0.00 | 97 | 1014.8 |
| 20260905082542 | 71 | 354 | 1.7 | 1.7 | 0.00 | 0.00 | 0.00 | 97 | 1015.0 |
| 20260905082038 | 71 | 6 | 1.7 | 1.7 | 0.00 | 0.00 | 0.00 | 97 | 1014.9 |
| 20260905081537 | 71 | 355 | 1.7 | 1.7 | 0.00 | 0.00 | 0.00 | 97 | 1015.0 |
| 20260905081033 | 71 | 357 | 1.7 | 1.7 | 0.00 | 0.00 | 0.00 | 97 | 1015.0 |
| 20260905080533 | 71 | 9 | 1.7 | 1.7 | 0.00 | 0.00 | 0.00 | 97 | 1014.9 |
| 20260905080028 | 71 | 341 | 1.7 | 1.7 | 0.00 | 0.00 | 0.00 | 97 | 1015.2 |
| 20260905075527 | 72 | 28 | 0.9 | 0.9 | 0.00 | 0.00 | 0.00 | 97 | 1015.2 |
| 20260905075027 | 72 | 20 | 1.7 | 1.7 | 0.00 | 0.00 | 0.00 | 97 | 1015.2 |
| 20260905074521 | 72 | 353 | 1.7 | 1.7 | 0.00 | 0.00 | 0.00 | 96 | 1015.1 |
| 20260905074017 | 72 | 0 | 0.0 | 1.7 | 0.00 | 0.00 | 0.00 | 96 | 1015.3 |
| 20260905073512 | 72 | 346 | 1.7 | 1.7 | 0.00 | 0.00 | 0.00 | 96 | 1015.3 |
| 20260905073008 | 72 | 335 | 1.7 | 1.7 | 0.00 | 0.00 | 0.00 | 96 | 1015.3 |
| 20260905072501 | 72 | 220 | 0.0 | 0.0 | 0.00 | 0.00 | 0.00 | 96 | 1015.2 |
| 20260905071957 | 72 | 57 | 0.0 | 0.0 | 0.00 | 0.00 | 0.00 | 96 | 1015.3 |
| 20260905071454 | 72 | 4 | 0.9 | 1.7 | 0.00 | 0.00 | 0.00 | 95 | 1015.3 |
| 20260905070953 | 72 | 356 | 0.9 | 0.9 | 0.00 | 0.00 | 0.00 | 95 | 1015.5 |
| 20260905070450 | 73 | 40 | 0.0 | 0.0 | 0.00 | 0.00 | 0.00 | 95 | 1015.6 |
| 20260905065949 | 73 | 2 | 0.0 | 0.9 | 0.00 | 0.00 | 0.00 | 95 | 1015.6 |
| 20260905065448 | 73 | 2 | 0.0 | 0.0 | 0.00 | 0.00 | 0.00 | 95 | 1015.6 |
| 20260905064943 | 73 | 319 | 0.0 | 0.0 | 0.00 | 0.00 | 0.00 | 94 | 1015.7 |
| 20260905064443 | 73 | 0 | 0.0 | 0.9 | 0.00 | 0.00 | 0.00 | 94 | 1015.7 |
| 20260905063938 | 73 | 18 | 0.9 | 1.7 | 0.00 | 0.00 | 0.00 | 94 | 1015.7 |
| 20260905063433 | 73 | 45 | 0.9 | 1.7 | 0.00 | 0.00 | 0.00 | 94 | 1015.8 |
| 20260905062930 | 73 | 50 | 0.9 | 1.7 | 0.00 | 0.00 | 0.00 | 95 | 1015.8 |
| 20260905062429 | 73 | 11 | 0.0 | 0.0 | 0.00 | 0.00 | 0.00 | 94 | 1015.7 |
| 20260905061925 | 73 | 344 | 0.0 | 1.7 | 0.00 | 0.00 | 0.00 | 94 | 1015.8 |
| 20260905061424 | 73 | 45 | 0.0 | 1.7 | 0.00 | 0.00 | 0.00 | 93 | 1016.0 |